Zurück zum Katalog

ONEWEB-0721

AktivKommunikationPO
NORAD 56725·PAYLOAD·🇬🇧 United Kingdom

Gestartet May 20, 2023 von Vandenberg Space Force Base

Loading…

Nächste Überflüge (nächste 24 Stunden)

TLE

AktuellSource: CelesTrak SupGP

Epoche: Sep 14, 2026, 23:03 UTC

1 56725C 23068R   26257.96094164 -.00000245  00000+0 -58909-3 0  2578
2 56725  86.6744  56.8314 0001684  94.3528 331.3075 13.22477352    18

Verfolge ONEWEB-0721 in Echtzeit mit AllMySat

Download on the App Store